This is the latest recevied weather packets stored in our database for station/object WW5JC. If no packets are shown the sender has not sent any weather packets the latest 10 day(s).
| Time | Temp. | Humidity | Pressure | Rain* | Wind** | Luminosity | Snow |
|---|---|---|---|---|---|---|---|
| 1777752688 | 22.78° C | 41% | 1021.7 hPa | 0 mm | - | 642 W/m² | - |
| 1777752384 | 22.78° C | 40% | 1021.8 hPa | 0 mm | - | 644 W/m² | - |
| 1777752082 | 22.78° C | 41% | 1022 hPa | 0 mm | - | 655 W/m² | - |
| 1777751780 | 22.22° C | 40% | 1021.8 hPa | 0 mm | - | 689 W/m² | - |
| 1777751475 | 22.22° C | 44% | 1022.1 hPa | 0 mm | - | 664 W/m² | - |
| 1777751172 | 22.22° C | 44% | 1022 hPa | 0 mm | - | 671 W/m² | - |
| 1777750868 | 22.22° C | 41% | 1022.2 hPa | 0 mm | - | 676 W/m² | - |
| 1777750566 | 22.22° C | 40% | 1022.2 hPa | 0 mm | - | 682 W/m² | - |
| 1777750263 | 22.78° C | 38% | 1022.3 hPa | 0 mm | - | 687 W/m² | - |
| 1777749958 | 22.78° C | 41% | 1022.4 hPa | 0 mm | - | 694 W/m² | - |
| 1777749656 | 22.22° C | 38% | 1022.4 hPa | 0 mm | - | 696 W/m² | - |
| 1777749353 | 22.78° C | 38% | 1022.3 hPa | 0 mm | - | 701 W/m² | - |
| 1777749050 | 22.22° C | 40% | 1022.4 hPa | 0 mm | - | 707 W/m² | - |
| 1777748748 | 22.22° C | 40% | 1022.5 hPa | 0 mm | - | 714 W/m² | - |
| 1777748444 | 21.67° C | 43% | 1022.5 hPa | 0 mm | - | 642 W/m² | - |
| 1777748139 | 22.22° C | 35% | 1022.5 hPa | 0 mm | - | 721 W/m² | - |
| 1777747837 | 22.22° C | 36% | 1022.6 hPa | 0 mm | - | 722 W/m² | - |
| 1777747532 | 21.67° C | 42% | 1022.7 hPa | 0 mm | - | 722 W/m² | - |
| 1777747228 | 22.22° C | 38% | 1022.9 hPa | 0 mm | - | 710 W/m² | - |
| 1777746925 | 21.67° C | 39% | 1022.9 hPa | 0 mm | - | 717 W/m² | - |
| 1777746621 | 21.67° C | 39% | 1022.9 hPa | 0 mm | - | 853 W/m² | - |
| 1777746316 | 22.22° C | 40% | 1022.8 hPa | 0 mm | - | 638 W/m² | - |
| 1777746012 | 21.67° C | 38% | 1022.8 hPa | 0 mm | - | 567 W/m² | - |
| 1777745710 | 21.67° C | 41% | 1023.1 hPa | 0 mm | - | 394 W/m² | - |
| 1777745409 | 21.67° C | 40% | 1022.9 hPa | 0 mm | - | 364 W/m² | - |
* Rain latest hour (hover to see other rain measurements)
** Current wind speed in m/s (hover to see current wind gust speed)